星链-31148 (STARLINK-31148 )

导读

STARLINK-31148是美国SpaceX公司星链星座的成员卫星,于2024年1月7日发射入轨,属于低轨通信卫星。星链项目旨在为全球提供高速互联网服务,覆盖偏远地区,服务海事航空通信,还具备重要军事应用价值。作为近地轨道大规模星座的一员,它虽推动卫星互联网发展,但也带来太空碎片、碰撞风险等争议,是星链全球组网进程中的组成部分。

基本信息
目录编号:
58741
目录名称:
STARLINK-31148
国际标识:
2024-005P
轨道中心:
EARTH
卫星名称:
星链-31148
卫星全名:
星链-31148 (STARLINK-31148 )
卫星状态:
在轨 (已飞行978 天)
发射日期:
2024-01-07 UTC
国别 :
美国 (US)
星等 :
--
该卫星已列入 空间交会检测服务 Space Conjunction Data Service (SCDS) ,当前飞行风险评估等级: 高风险
轨道信息
数据来源 国际轨道数据
星历时间: 2026-09-11T08:57:26+0800
16小时前
查看轨道信息
半长轴: 6861.206km
偏心率: 0.0001119
轨道倾角: 43.002°
近地点辐角 271.036°
升交点赤经 252.739°
平近点角 89.036°
近地点: 482.301km
远地点: 483.837km
周期: 94.267分钟
每日圈数: 15.275736
详细信息
固有亮度:
5
最大亮度:
0.3
卫星平台:
Starlink v2.0 mini
覆盖范围:
全球
运营商:
太空探索技术公司
运营商所在国:
美国
制造商(研发单位):
太空探索技术公司
制造商所在国:
美国
使用方式:
暂无
卫星简介
星链(Starlink)计划是由太空探索技术公司(SpaceX)提出的一个巨型低轨卫星互联网星座项目,计划在2019年至2024年间在太空搭建由约1.2万颗卫星组成的“星链”网络,其中1584颗将部署在地球上空550千米处的近地轨道,并从2020年开始工作。该卫星仍在工作。
2D轨道图
3D轨道图
轨道高度分析图
轨道倾角分析图
轨道综合分析图
查看轨道综合分析图
与全量物体交会距离演化趋势
与全量物体交会风险概率演化趋势